Keokuk, IA

4:15 AM CDT on July 27, 2017 (GMT -0500)
Keokuk Municipal

Weather History for KEOK - November, 2013

Change the Weather History Date:

Monday, November 11, 2013

  Actual Average Record
Temperature  
Mean Temperature 38 °F -  
Max Temperature 53 °F 49 °F 78 °F (1964)
Min Temperature 24 °F 33 °F 17 °F (1940)
Degree Days  
Heating Degree Days 26    
Moisture  
Dew Point 31 °F    
Average Humidity 70    
Maximum Humidity 93    
Minimum Humidity 53    
Precipitation  
Precipitation 0.00 in - - ()
Sea Level Pressure  
Sea Level Pressure 30.28 in    
Wind  
Wind Speed 10 mph (NW)    
Max Wind Speed 21 mph    
Max Gust Speed 25 mph    
Visibility 9 miles    
Events Rain , Snow    
Averages and records for this station are not official NWS values.
T = Trace of Precipitation, MM = Missing Value Source: NWS Daily Summary

Daily Weather History Graph

Daily Weather History Graph

Search for Another Location

Airport or City:

Trip Planner

Search our weather history database for the weather conditions in past years. The results will help you decide how hot, cold, wet, or windy it might be!

Date:

Astronomy

Nov. 11, 2013 Rise Set
Actual Time 6:47 AM CST 4:51 PM CST
Civil Twilight 6:18 AM CST 5:20 PM CST
Nautical Twilight 5:45 AM CST 5:53 PM CST
Astronomical Twilight 5:13 AM CST 6:25 PM CST
Moon 1:33 PM CST (11/11) 12:31 AM CST (11/11)
Length of Visible Light 11h 01m
Length of Day
10h 03m
Waxing Gibbous, 66% of the Moon is Illuminated
Nov 11
Waxing Gibbous
Nov 17
Full
Nov 25
Last Quarter
Dec 2
New
Dec 9
First Quarter

Hourly Weather History & Observations

Time (CST) Temp. Windchill Dew Point Humidity Pressure Visibility Wind Dir Wind Speed Gust Speed Precip Events Conditions
12:15 AM 46.4 °F 41.5 °F 32.0 °F 57% 30.21 in 10.0 mi SSW 10.4 mph - N/A   Overcast
12:35 AM 46.4 °F 41.1 °F 30.2 °F 53% 30.20 in 10.0 mi SSW 11.5 mph 18.4 mph N/A   Overcast
1:55 AM 46.4 °F 41.9 °F 32.0 °F 57% 30.18 in 9.0 mi SSW 9.2 mph - N/A   Overcast
2:15 AM 46.4 °F 41.9 °F 32.0 °F 57% 30.18 in 9.0 mi SSW 9.2 mph - N/A   Overcast
2:35 AM 46.4 °F 41.9 °F 32.0 °F 57% 30.17 in 10.0 mi SSW 9.2 mph - N/A   Overcast
2:55 AM 46.4 °F 42.9 °F 32.0 °F 57% 30.16 in 10.0 mi SSW 6.9 mph - N/A   Overcast
3:15 AM 46.4 °F 42.9 °F 33.8 °F 62% 30.15 in 9.0 mi SSW 6.9 mph - N/A   Overcast
3:35 AM 46.4 °F 42.4 °F 32.0 °F 57% 30.15 in 10.0 mi SSW 8.1 mph - N/A   Overcast
3:55 AM 46.4 °F 42.4 °F 32.0 °F 57% 30.15 in 10.0 mi SSW 8.1 mph - N/A   Overcast
4:15 AM 46.4 °F 42.4 °F 32.0 °F 57% 30.14 in 10.0 mi SSW 8.1 mph - N/A   Overcast
4:35 AM 46.4 °F 41.1 °F 33.8 °F 62% 30.13 in 9.0 mi SSW 11.5 mph - N/A   Overcast
4:55 AM 46.4 °F 42.4 °F 33.8 °F 62% 30.13 in 10.0 mi SSW 8.1 mph - N/A   Mostly Cloudy
5:15 AM 44.6 °F 40.2 °F 33.8 °F 66% 30.13 in 10.0 mi SW 8.1 mph - N/A   Partly Cloudy
5:35 AM 44.6 °F 41.4 °F 33.8 °F 66% 30.13 in 9.0 mi SW 5.8 mph - N/A   Clear
5:55 AM 42.8 °F 39.3 °F 33.8 °F 70% 30.12 in 8.0 mi SW 5.8 mph - N/A   Partly Cloudy
6:15 AM 44.6 °F 40.7 °F 33.8 °F 66% 30.12 in 9.0 mi SSW 6.9 mph - N/A   Mostly Cloudy
6:35 AM 44.6 °F 40.2 °F 33.8 °F 66% 30.12 in 9.0 mi SSW 8.1 mph - N/A   Partly Cloudy
6:55 AM 44.6 °F 40.2 °F 33.8 °F 66% 30.12 in 7.0 mi SW 8.1 mph - N/A   Clear
7:15 AM 44.6 °F 40.2 °F 33.8 °F 66% 30.13 in 9.0 mi SW 8.1 mph - N/A   Scattered Clouds
7:35 AM 46.4 °F 42.4 °F 35.6 °F 66% 30.13 in 8.0 mi SW 8.1 mph - N/A   Overcast
7:55 AM 46.4 °F 41.9 °F 35.6 °F 66% 30.13 in 9.0 mi SW 9.2 mph - N/A   Overcast
8:15 AM 48.2 °F - 35.6 °F 62% 30.14 in 10.0 mi SW 8.1 mph - N/A   Overcast
8:35 AM 48.2 °F - 35.6 °F 62% 30.13 in 10.0 mi SW 8.1 mph - N/A   Overcast
8:55 AM 50.0 °F - 37.4 °F 62% 30.13 in 9.0 mi SW 8.1 mph - N/A   Overcast
9:15 AM 50.0 °F - 37.4 °F 62% 30.14 in 10.0 mi West 6.9 mph - N/A   Overcast
9:35 AM 50.0 °F - 37.4 °F 62% 30.15 in 10.0 mi West 6.9 mph - N/A   Overcast
9:55 AM 51.8 °F - 39.2 °F 62% 30.15 in 10.0 mi West 9.2 mph - N/A   Overcast
10:15 AM 53.6 °F - 39.2 °F 58% 30.16 in 10.0 mi NW 6.9 mph 13.8 mph N/A   Overcast
10:35 AM 53.6 °F - 41.0 °F 62% 30.16 in 10.0 mi NW 6.9 mph - N/A   Overcast
10:55 AM 51.8 °F - 41.0 °F 67% 30.17 in 10.0 mi NNW 10.4 mph 16.1 mph N/A   Overcast
11:15 AM 51.8 °F - 37.4 °F 58% 30.18 in - NW 12.7 mph 23.0 mph N/A   Overcast
11:35 AM 50.0 °F - 37.4 °F 62% 30.18 in 10.0 mi NNW 11.5 mph - N/A   Overcast
11:55 AM 50.0 °F - 35.6 °F 58% 30.19 in 10.0 mi North 11.5 mph - N/A   Overcast
12:15 PM 48.2 °F - 35.6 °F 62% 30.19 in 10.0 mi North 17.3 mph 23.0 mph N/A   Overcast
12:35 PM 46.4 °F 39.8 °F 33.8 °F 62% 30.20 in 10.0 mi North 16.1 mph 23.0 mph N/A   Overcast
12:55 PM 44.6 °F 38.4 °F 35.6 °F 71% 30.21 in 7.0 mi North 12.7 mph 21.9 mph N/A Rain Light Rain
1:15 PM 44.6 °F 37.4 °F 33.8 °F 66% 30.20 in 10.0 mi North 16.1 mph 24.2 mph N/A   Overcast
1:35 PM 44.6 °F 37.4 °F 33.8 °F 66% 30.22 in 10.0 mi North 16.1 mph 23.0 mph N/A   Overcast
1:55 PM 42.8 °F 37.0 °F 35.6 °F 76% 30.23 in 9.0 mi North 10.4 mph 18.4 mph N/A   Overcast
2:15 PM 42.8 °F 35.8 °F 35.6 °F 76% 30.24 in 6.0 mi North 13.8 mph - N/A Rain Light Rain
2:35 PM 41.0 °F 33.9 °F 33.8 °F 76% 30.25 in 9.0 mi NNW 12.7 mph 23.0 mph N/A   Overcast
2:55 PM 41.0 °F 33.9 °F 33.8 °F 76% 30.26 in 10.0 mi North 12.7 mph 23.0 mph N/A   Overcast
3:15 PM 41.0 °F 32.8 °F 32.0 °F 70% 30.28 in 10.0 mi North 16.1 mph 23.0 mph N/A   Overcast
3:35 PM 39.2 °F 29.8 °F 32.0 °F 75% 30.30 in 10.0 mi NNW 18.4 mph 25.3 mph N/A   Overcast
3:55 PM 37.4 °F 26.9 °F 32.0 °F 81% 30.32 in 10.0 mi North 20.7 mph - N/A   Overcast
4:15 PM 35.6 °F 24.8 °F 30.2 °F 81% 30.34 in 10.0 mi North 19.6 mph 25.3 mph N/A   Overcast
4:35 PM 33.8 °F 24.3 °F 30.2 °F 87% 30.35 in 10.0 mi NNW 13.8 mph 19.6 mph N/A Rain Light Rain
4:55 PM 32.0 °F 22.1 °F 28.4 °F 87% 30.36 in 10.0 mi NNW 13.8 mph 20.7 mph N/A Rain Light Rain
5:15 PM 32.0 °F 20.5 °F 26.6 °F 80% 30.38 in 10.0 mi North 18.4 mph 25.3 mph N/A Rain Light Rain
5:35 PM 30.2 °F 18.5 °F 26.6 °F 86% 30.40 in 9.0 mi North 17.3 mph 23.0 mph N/A   Overcast
5:55 PM 28.4 °F 17.0 °F 26.6 °F 93% 30.41 in 3.0 mi North 15.0 mph 25.3 mph N/A   Overcast
6:15 PM 28.4 °F 18.5 °F 26.6 °F 93% 30.43 in 1.8 mi North 11.5 mph 21.9 mph N/A Rain Light Freezing Rain
6:35 PM 28.4 °F 19.1 °F 26.6 °F 93% 30.45 in 1.0 mi NNW 10.4 mph - N/A Snow Light Snow
6:55 PM 28.4 °F 19.7 °F 26.6 °F 93% 30.45 in 1.5 mi NNW 9.2 mph - N/A Snow Light Snow
7:15 PM 28.4 °F 20.4 °F 26.6 °F 93% 30.45 in 8.0 mi NNW 8.1 mph - N/A   Overcast
7:35 PM 28.4 °F 19.7 °F 24.8 °F 86% 30.46 in 10.0 mi NNW 9.2 mph - N/A   Overcast
7:55 PM 28.4 °F 19.1 °F 24.8 °F 86% 30.47 in 10.0 mi NNW 10.4 mph 18.4 mph N/A   Overcast
8:15 PM 30.2 °F 21.3 °F 23.0 °F 75% 30.48 in 10.0 mi NNW 10.4 mph 20.7 mph N/A   Overcast
8:35 PM 28.4 °F 17.5 °F 23.0 °F 80% 30.49 in 10.0 mi North 13.8 mph 20.7 mph N/A   Mostly Cloudy
8:55 PM 28.4 °F 17.5 °F 21.2 °F 74% 30.51 in 10.0 mi North 13.8 mph - N/A   Mostly Cloudy
9:15 PM 28.4 °F 18.0 °F 21.2 °F 74% 30.52 in 10.0 mi North 12.7 mph - N/A   Mostly Cloudy
9:35 PM 28.4 °F 18.5 °F 21.2 °F 74% 30.54 in 10.0 mi North 11.5 mph 18.4 mph N/A   Scattered Clouds
9:55 PM 28.4 °F 19.1 °F 21.2 °F 74% 30.55 in - NNW 10.4 mph 20.7 mph N/A   Scattered Clouds
10:15 PM 26.6 °F 15.7 °F 21.2 °F 80% 30.55 in 10.0 mi North 12.7 mph 18.4 mph N/A   Partly Cloudy
10:35 PM 26.6 °F 15.7 °F 19.4 °F 74% 30.56 in 10.0 mi North 12.7 mph 19.6 mph N/A   Clear
10:55 PM 26.6 °F 13.8 °F 19.4 °F 74% 30.57 in 10.0 mi North 17.3 mph - N/A   Clear
11:15 PM 24.8 °F 12.4 °F 17.6 °F 74% 30.58 in 10.0 mi North 15.0 mph 23.0 mph N/A   Clear
11:35 PM 24.8 °F 12.9 °F 17.6 °F 74% 30.60 in 10.0 mi North 13.8 mph 20.7 mph N/A   Clear
11:55 PM 24.8 °F 13.4 °F 17.6 °F 74% 30.61 in 10.0 mi North 12.7 mph - N/A   Clear